Temp
67 68 68 69 68 68 68 67 66 66 66 67 66 66 66 65 65 64 59 64 65 68 69 69 68 67 66 66 65 65 65 64 64 64 64 63 63 63 62 62 61 61 61
69 69 69 69 69 69 69 67 66 66 65 65 65 65 65 64 65 63 61 58 63 65 67 67 67 67 66 65 64 64 64 64 63 63 63 63 63 63 62 62 61 61 61
69 69 68 68 68 69 69 66 67 65 64 66 64 64 64 64 63 64 61 60 58 61 63 64 64 64 64 64 63 63 63 62 62 62 62 62 61 61 61 61 61 61 61
71 69 68 68 69 67 67 65 64 63 63 63 61 61 62 63 63 63 63 61 60 59 60 61 62 62 62 62 62 62 62 61 61 61 61 60 60 60 60 60 60 60 60
72 69 70 68 68 67 65 66 64 63 61 61 62 60 60 60 61 66 61 61 59 58 56 59 60 60 60 61 60 60 60 60 60 59 59 59 59 58 58 58 58 59 59
71 69 70 68 67 65 64 64 63 62 61 60 69 64 59 59 59 58 59 62 59 59 58 55 52 54 59 59 59 59 59 59 59 58 58 58 57 57 57 57 57 57 58
71 69 68 66 65 64 64 63 61 60 58 59 57 57 57 58 57 57 57 57 58 58 57 56 54 52 53 58 58 58 58 57 57 57 56 56 55 55 55 55 56 56 57
71 69 67 66 65 64 63 61 60 57 58 58 54 54 50 52 54 56 55 57 54 56 57 57 55 55 52 50 51 57 57 56 55 54 54 54 54 54 54 54 54 55 55
72 70 67 66 64 63 61 60 59 58 55 55 57 52 48 48 51 53 53 53 52 52 53 55 55 55 54 51 53 53 54 52 52 52 52 53 53 53 53 53 53 53 54
69 69 68 66 65 64 62 59 61 58 56 53 55 59 56 55 49 46 50 51 53 54 51 51 52 54 54 51 54 51 50 49 49 49 50 51 51 51 51 52 52 52 52
68 66 67 65 64 63 61 61 60 58 57 53 51 50 52 53 52 48 45 50 50 51 51 51 50 50 54 52 48 48 48 47 48 48 50 50 50 50 50 50 51 51 51
67 65 66 63 58 56 54 53 54 56 54 53 51 51 50 50 50 47 46 46 47 50 52 50 49 49 50 49 55 49 48 47 47 48 49 49 49 49 49 49 49 49 50
63 60 58 56 55 54 53 52 53 52 51 50 50 50 51 54 55 52 49 45 44 48 49 50 49 49 53 48 47 48 48 47 47 48 48 48 48 48 47 47 47 48 48
60 57 56 55 54 53 53 53 51 49 49 48 48 49 52 54 53 52 50 45 40 43 45 47 50 48 48 48 45 50 46 48 47 47 46 46 47 47 46 46 46 46 46
58 56 55 54 54 53 52 50 49 48 48 48 48 50 52 52 52 52 50 49 44 36 38 44 44 50 49 47 47 45 45 50 48 46 45 46 47 46 46 45 45 45 45
57 56 55 55 53 52 51 50 48 49 48 48 50 51 51 51 50 50 50 48 46 41 36 44 45 47 49 53 48 45 45 50 48 46 45 45 45 45 45 45 44 44 43
57 57 56 54 53 52 51 49 48 48 48 49 49 48 49 50 51 50 48 47 46 45 41 41 45 46 45 44 46 45 45 43 42 47 46 45 44 43 43 43 43 43 42
58 57 57 55 54 51 50 48 48 50 48 47 47 47 47 51 49 51 49 46 44 45 41 37 41 42 43 44 43 42 46 49 43 48 46 45 44 43 42 42 42 42 41
55 55 54 53 50 48 48 48 49 47 47 47 46 46 47 47 48 48 46 45 44 49 43 40 40 41 41 41 41 42 41 40 46 49 46 45 44 44 43 42 42 42 42
50 49 49 49 48 48 49 49 48 47 46 46 46 47 47 48 46 46 47 47 47 43 45 43 43 42 39 41 39 37 35 37 37 47 46 44 44 44 44 43 43 43 43
50 49 48 47 47 48 49 48 47 45 45 45 45 48 48 48 45 45 47 44 43 42 42 40 39 40 41 37 35 36 34 34 35 37 35 36 35 35 37 42 44 44 43
52 49 47 46 46 49 42 44 45 46 46 45 42 45 46 45 45 43 43 43 44 42 41 40 41 39 40 38 36 34 34 31 29 35 33 32 35 34 36 36 43 42 41
49 47 47 46 45 44 41 41 40 42 41 40 41 42 43 46 44 46 44 42 39 39 40 41 40 40 39 41 36 34 33 33 30 32 32 29 32 34 36 44 42 42 41
46 45 46 46 46 47 40 40 38 39 39 41 41 41 41 42 44 43 42 40 42 43 44 43 39 40 41 42 39 38 35 33 32 32 33 28 31 30 33 35 42 42 40
48 48 49 48 48 43 40 39 39 39 41 41 44 43 41 40 38 38 36 34 36 39 45 43 42 42 41 41 38 36 32 26 22 28 32 30 31 29 30 29 32 41 39
48 48 45 43 41 43 40 38 39 35 33 31 35 38 37 37 37 37 33 32 31 33 35 36 37 40 37 35 37 38 35 28 25 23 31 29 29 27 22 30 30 31 30
MSLP
1021.04 1021.15 1021.52 1021.89 1022.21 1022.41 1022.50 1022.67 1023.04 1023.30 1023.38 1023.40 1023.55 1023.59 1023.85 1023.76 1024.02 1024.76 1025.10 1025.18 1025.42 1025.52 1025.61 1025.78 1026.27 1026.65 1026.62 1026.80 1027.06 1027.36 1027.52 1027.56 1027.51 1027.49 1027.56 1027.65 1027.64 1027.72 1027.74 1027.69 1027.85 1027.85 1027.79
1020.55 1020.76 1021.15 1021.47 1021.76 1021.98 1022.32 1022.49 1022.92 1023.07 1023.40 1023.41 1023.83 1023.89 1024.10 1024.16 1024.20 1024.91 1025.17 1025.53 1025.62 1025.83 1025.80 1026.10 1026.46 1026.58 1026.70 1026.93 1027.25 1027.54 1027.62 1027.61 1027.64 1027.69 1027.74 1027.79 1027.75 1027.64 1027.61 1027.64 1027.78 1027.73 1027.69
1020.46 1020.81 1021.15 1021.45 1021.62 1021.80 1022.02 1022.31 1022.53 1022.90 1023.15 1023.42 1023.94 1024.18 1024.20 1024.41 1024.58 1024.59 1025.36 1025.54 1025.84 1026.11 1026.13 1026.54 1026.83 1026.93 1026.95 1027.10 1027.37 1027.66 1027.84 1027.89 1027.90 1027.90 1027.90 1027.91 1027.91 1027.88 1027.81 1027.78 1027.76 1027.67 1027.59
1020.31 1020.90 1021.07 1021.22 1021.38 1021.59 1021.98 1022.54 1022.85 1023.24 1023.29 1023.53 1023.92 1024.02 1024.18 1024.43 1024.74 1024.98 1025.01 1025.39 1025.72 1026.18 1026.46 1026.54 1026.83 1027.04 1027.20 1027.36 1027.55 1027.78 1027.93 1028.02 1028.07 1028.07 1028.11 1028.13 1028.14 1028.12 1028.04 1027.92 1027.87 1027.72 1027.60
1020.11 1020.68 1020.84 1020.98 1021.16 1021.63 1022.03 1022.35 1022.70 1022.82 1023.07 1023.51 1023.88 1024.06 1024.03 1024.46 1024.77 1024.64 1025.14 1025.25 1025.45 1025.96 1026.35 1026.54 1026.66 1026.90 1027.11 1027.32 1027.49 1027.71 1027.94 1028.09 1028.21 1028.26 1028.27 1028.31 1028.32 1028.32 1028.28 1028.17 1028.02 1027.80 1027.59
1019.79 1020.30 1020.44 1020.68 1021.19 1021.48 1022.00 1022.11 1022.49 1022.67 1023.02 1023.33 1023.47 1023.88 1024.16 1024.48 1024.44 1024.64 1025.02 1025.19 1025.30 1025.54 1026.03 1026.59 1026.64 1026.81 1027.01 1027.27 1027.42 1027.64 1027.94 1028.19 1028.33 1028.40 1028.42 1028.49 1028.50 1028.50 1028.42 1028.27 1028.03 1027.77 1027.49
1019.35 1019.95 1020.31 1020.72 1021.21 1021.54 1021.73 1022.11 1022.29 1022.65 1023.20 1023.46 1023.77 1023.92 1023.86 1024.19 1024.52 1024.50 1024.62 1025.04 1025.00 1025.30 1025.74 1025.97 1026.30 1026.62 1026.97 1027.21 1027.49 1027.73 1028.01 1028.22 1028.43 1028.56 1028.68 1028.74 1028.73 1028.63 1028.43 1028.21 1027.97 1027.70 1027.40
1018.83 1019.44 1019.98 1020.31 1020.79 1021.40 1021.60 1021.83 1022.28 1022.81 1023.10 1023.42 1023.90 1024.06 1024.00 1024.56 1024.71 1024.42 1024.47 1024.76 1024.88 1025.05 1025.31 1025.60 1025.90 1026.24 1026.51 1026.97 1027.36 1027.61 1027.93 1028.26 1028.49 1028.70 1028.81 1028.83 1028.79 1028.61 1028.39 1028.14 1027.87 1027.59 1027.26
1018.39 1018.81 1019.52 1019.96 1020.56 1020.92 1021.10 1021.58 1022.16 1022.56 1023.13 1023.51 1023.76 1024.31 1024.24 1024.37 1024.37 1024.08 1024.39 1024.62 1024.89 1025.18 1025.34 1025.48 1025.61 1025.86 1026.19 1026.50 1026.88 1027.16 1027.92 1028.30 1028.54 1028.76 1028.75 1028.76 1028.68 1028.48 1028.23 1027.97 1027.69 1027.43 1027.09
1018.11 1018.42 1019.13 1019.68 1020.13 1020.55 1021.00 1021.50 1022.22 1022.64 1022.96 1023.54 1023.92 1024.05 1024.16 1024.44 1024.56 1024.95 1024.44 1024.38 1024.43 1024.83 1025.09 1025.36 1025.38 1025.53 1025.73 1026.05 1026.18 1026.89 1027.60 1028.17 1028.54 1028.60 1028.61 1028.60 1028.50 1028.31 1028.04 1027.75 1027.47 1027.17 1026.79
1017.77 1018.51 1018.90 1019.34 1019.87 1020.40 1021.07 1021.60 1022.26 1022.80 1023.09 1023.66 1024.31 1024.54 1024.45 1024.52 1024.45 1025.03 1024.94 1024.49 1024.58 1024.49 1024.40 1024.78 1024.95 1025.24 1025.41 1025.62 1026.07 1026.84 1027.39 1027.81 1028.08 1028.23 1028.23 1028.18 1028.18 1028.07 1027.83 1027.55 1027.18 1026.83 1026.46
1017.34 1017.80 1018.37 1019.00 1019.86 1020.55 1021.33 1022.40 1022.72 1022.90 1023.29 1023.87 1024.34 1024.66 1024.74 1024.83 1024.09 1024.51 1024.65 1024.40 1024.32 1024.15 1024.07 1024.15 1024.55 1024.78 1024.95 1025.23 1025.42 1026.24 1026.74 1027.13 1027.43 1027.55 1027.61 1027.74 1027.79 1027.71 1027.52 1027.24 1026.91 1026.59 1026.23
1016.91 1017.51 1018.00 1018.68 1019.13 1020.25 1021.15 1021.79 1022.77 1022.87 1023.65 1024.19 1024.23 1024.30 1024.22 1024.19 1023.68 1023.98 1024.13 1024.12 1024.26 1024.10 1024.05 1023.96 1023.94 1024.02 1024.19 1024.56 1025.03 1025.59 1026.12 1026.37 1026.54 1026.84 1027.06 1027.24 1027.26 1027.25 1027.18 1027.03 1026.78 1026.41 1026.03
1016.43 1017.07 1017.96 1019.02 1019.52 1019.69 1020.68 1021.27 1021.71 1022.61 1023.11 1023.45 1024.04 1024.23 1024.11 1023.69 1023.74 1023.83 1024.05 1024.10 1024.36 1024.38 1024.23 1023.95 1023.50 1023.64 1023.68 1023.83 1024.40 1024.73 1025.22 1025.51 1025.85 1026.08 1026.33 1026.49 1026.50 1026.53 1026.64 1026.58 1026.37 1026.06 1025.74
1016.59 1017.17 1018.00 1018.87 1019.70 1020.07 1020.53 1020.87 1021.55 1022.38 1023.09 1023.52 1023.64 1023.74 1023.64 1023.51 1023.82 1024.06 1023.76 1023.86 1024.10 1024.49 1024.30 1023.96 1023.78 1023.33 1023.43 1023.50 1023.72 1024.13 1024.41 1024.68 1024.97 1025.30 1025.47 1025.59 1025.66 1025.82 1025.94 1025.87 1025.66 1025.49 1025.28
1016.54 1017.24 1018.00 1018.75 1019.15 1019.90 1020.47 1020.92 1021.64 1022.29 1022.96 1023.24 1023.30 1023.21 1023.16 1023.39 1023.84 1023.77 1023.32 1023.44 1023.67 1023.75 1023.69 1023.54 1023.42 1023.11 1022.99 1022.85 1023.17 1023.36 1023.69 1023.89 1024.18 1024.45 1024.67 1024.72 1024.86 1025.08 1025.14 1025.12 1024.97 1024.81 1024.61
1016.47 1017.08 1017.78 1018.31 1018.98 1019.79 1020.46 1021.03 1021.62 1022.30 1022.85 1023.01 1022.75 1023.03 1023.44 1023.67 1023.52 1023.15 1023.00 1023.07 1023.44 1023.53 1023.43 1023.07 1022.78 1022.63 1022.57 1022.67 1022.58 1022.75 1022.97 1023.32 1023.48 1023.65 1023.80 1023.98 1024.04 1024.16 1024.23 1024.25 1024.18 1024.03 1023.90
1016.04 1016.69 1017.22 1018.06 1018.86 1019.65 1020.33 1020.75 1021.38 1021.92 1022.22 1022.83 1023.06 1022.95 1023.46 1023.41 1023.17 1022.84 1022.59 1022.60 1022.91 1022.94 1023.04 1022.92 1022.61 1022.44 1022.23 1022.00 1021.94 1022.18 1022.25 1022.27 1022.52 1022.73 1023.03 1023.05 1023.09 1023.28 1023.35 1023.32 1023.31 1023.16 1023.01
1015.95 1016.47 1017.02 1017.89 1018.78 1019.64 1020.28 1020.64 1021.21 1021.69 1022.26 1022.38 1022.51 1023.15 1023.15 1023.21 1022.85 1022.62 1022.29 1022.22 1022.29 1022.22 1022.25 1022.28 1022.11 1021.76 1021.50 1021.51 1021.39 1021.26 1021.47 1021.64 1021.69 1021.85 1022.00 1022.12 1022.39 1022.53 1022.40 1022.40 1022.34 1022.14 1021.90
1016.17 1016.72 1017.29 1017.95 1018.74 1019.50 1020.04 1020.48 1020.93 1021.46 1022.04 1022.41 1022.57 1022.94 1023.02 1022.78 1022.43 1022.22 1021.98 1021.85 1021.74 1021.85 1021.85 1021.71 1021.38 1021.15 1021.10 1020.75 1020.56 1020.79 1021.02 1020.84 1020.91 1020.99 1021.33 1021.48 1021.62 1021.60 1021.58 1021.61 1021.34 1020.96 1020.70
1016.45 1017.07 1017.70 1018.32 1018.93 1019.44 1019.86 1020.27 1020.97 1021.25 1021.77 1022.15 1022.49 1022.73 1022.51 1022.11 1022.07 1021.93 1021.73 1021.44 1021.42 1021.39 1021.25 1021.11 1020.81 1020.46 1020.30 1020.22 1020.17 1019.90 1020.18 1020.39 1020.38 1020.57 1020.85 1021.19 1021.29 1021.25 1021.08 1020.84 1020.35 1019.88 1019.66
1016.48 1017.17 1017.77 1018.34 1018.85 1019.22 1019.63 1020.23 1020.83 1021.33 1021.59 1022.08 1022.41 1022.40 1022.34 1022.11 1021.76 1021.28 1021.00 1020.74 1020.63 1020.56 1020.30 1020.19 1019.60 1019.54 1019.29 1019.34 1019.30 1019.19 1019.44 1020.00 1020.38 1019.86 1020.22 1020.66 1020.67 1020.73 1020.54 1020.08 1019.64 1019.54 1019.48
1016.76 1017.45 1017.90 1018.38 1019.08 1019.59 1019.98 1020.55 1021.05 1021.51 1021.94 1022.20 1022.30 1022.18 1021.98 1021.62 1021.17 1020.75 1020.37 1019.91 1019.52 1019.22 1019.11 1018.79 1018.60 1018.15 1018.21 1018.16 1018.41 1018.50 1018.50 1018.85 1019.42 1019.42 1019.65 1020.11 1020.27 1020.08 1019.60 1019.10 1019.10 1018.99 1018.90
1017.36 1017.82 1018.20 1018.62 1019.09 1019.66 1020.32 1020.88 1021.39 1021.79 1022.09 1022.04 1021.97 1021.79 1021.58 1021.19 1020.78 1020.44 1020.09 1019.69 1019.20 1018.70 1018.24 1017.96 1017.77 1017.17 1016.98 1017.00 1017.18 1017.40 1017.82 1018.10 1018.59 1018.66 1019.07 1019.71 1019.55 1019.38 1018.82 1018.60 1018.46 1018.38 1018.32
1017.31 1017.75 1018.22 1018.63 1019.07 1020.11 1020.61 1021.06 1021.47 1021.72 1021.77 1021.72 1021.64 1021.45 1021.35 1021.19 1021.11 1020.98 1020.78 1020.36 1019.50 1018.49 1017.67 1017.16 1016.67 1016.02 1015.58 1015.66 1015.99 1016.59 1017.33 1018.20 1018.33 1018.23 1018.41 1018.80 1018.79 1018.68 1018.44 1018.35 1018.16 1017.80 1017.80
1017.53 1018.03 1018.77 1019.19 1019.57 1020.07 1020.58 1021.25 1021.52 1021.72 1022.05 1022.33 1022.03 1021.83 1021.63 1021.43 1021.11 1020.98 1020.92 1020.67 1019.78 1018.81 1018.07 1017.25 1016.79 1015.82 1015.39 1015.00 1014.84 1015.29 1016.26 1017.12 1017.65 1017.89 1017.45 1018.02 1018.22 1018.32 1018.21 1017.86 1017.79 1017.56 1017.36
Wind_Speed
4 5 4 6 5 4 4 4 5 4 3 5 4 5 4 4 5 5 3 12 11 9 9 10 11 9 9 8 7 7 6 6 8 9 10 11 10 10 11 12 10 12 14
4 4 4 4 4 4 4 5 5 4 3 6 4 5 5 4 5 6 5 5 13 12 10 9 8 9 8 7 6 5 6 8 8 9 10 11 11 10 12 10 9 11 12
4 3 3 3 4 5 6 4 3 3 3 4 6 3 4 1 3 3 6 6 6 12 13 11 10 8 7 6 7 6 6 6 7 8 9 11 12 14 14 14 14 13 14
7 3 4 4 4 4 3 3 3 3 3 4 4 4 3 3 4 1 2 4 5 6 8 13 11 9 8 6 4 4 5 5 7 8 9 11 12 13 14 16 16 17 18
6 5 4 4 5 4 3 4 4 4 4 1 4 3 2 1 5 4 5 1 4 6 5 9 11 10 8 7 5 3 3 4 6 8 9 11 12 13 15 16 16 17 18
7 6 4 6 5 3 4 3 4 2 3 4 4 5 4 4 2 3 4 4 6 4 4 6 5 5 8 6 6 5 2 2 5 7 9 11 13 14 15 17 18 19 20
8 7 4 6 5 4 5 6 3 5 1 2 2 3 4 6 4 3 4 5 5 6 4 3 1 4 4 8 6 6 6 0 2 6 9 11 13 14 16 18 19 20 21
10 7 6 6 7 4 5 5 5 3 3 5 2 2 3 1 2 5 3 5 4 4 4 6 5 3 2 4 7 10 6 4 3 3 7 11 14 16 18 19 20 21 22
7 8 7 5 6 5 5 6 4 4 4 2 4 1 2 1 2 4 5 4 5 3 2 4 6 6 6 4 8 7 10 7 4 1 7 12 15 18 18 19 19 21 22
6 5 7 6 5 4 3 4 3 2 1 3 2 4 2 2 1 3 2 5 5 5 5 4 3 3 4 5 6 15 15 10 6 0 7 11 15 17 17 19 20 21 22
5 6 5 7 4 4 4 5 3 1 2 3 2 1 2 2 4 4 4 2 1 4 5 6 6 5 4 2 4 12 16 12 6 3 8 11 14 16 18 20 21 21 22
8 6 3 5 7 6 7 3 2 7 4 3 2 0 2 4 2 3 4 5 5 4 5 5 5 5 4 4 6 17 15 12 10 7 7 10 14 17 20 21 21 22 23
6 7 8 9 8 7 7 7 6 6 4 2 1 2 3 7 2 2 2 3 2 3 3 3 4 5 5 5 7 17 18 14 10 7 6 9 14 18 19 19 20 22 23
8 8 5 4 4 9 9 9 7 5 6 3 4 5 5 3 3 2 3 1 3 3 3 5 3 5 5 5 10 14 7 11 10 8 8 10 15 16 17 18 20 23 24
5 7 6 7 9 9 10 8 6 5 3 3 5 8 4 2 3 4 3 3 3 3 4 5 2 3 3 5 7 7 6 6 5 9 11 13 17 16 17 18 21 23 24
7 8 9 10 8 7 8 8 6 5 5 5 6 2 2 1 4 6 3 3 3 5 5 5 5 4 4 3 8 7 7 9 8 9 11 14 15 15 17 18 20 21 22
7 7 9 8 9 9 8 8 7 6 7 7 3 4 2 5 7 5 4 3 4 4 5 4 4 4 4 4 3 4 6 5 4 9 9 11 14 16 17 18 19 21 21
6 8 8 9 9 9 8 9 8 6 7 4 4 4 4 7 10 9 5 6 5 5 4 7 5 4 6 6 5 5 5 4 4 7 9 13 16 16 17 18 19 22 22
4 4 6 8 9 9 9 7 7 6 4 6 4 2 7 10 8 8 6 5 5 6 4 4 6 5 5 5 5 5 5 6 5 10 14 16 13 16 18 19 21 23 23
7 7 8 9 10 9 9 8 8 8 5 4 1 4 9 11 7 8 7 8 7 6 8 9 9 8 5 6 4 4 4 4 5 4 3 5 10 14 12 16 20 22 23
7 7 6 6 7 7 6 8 8 7 6 3 3 7 10 8 11 11 8 8 7 7 7 7 8 7 9 5 5 5 5 4 4 4 3 3 3 3 4 12 15 15 10
7 7 7 7 7 6 12 13 8 5 4 3 4 5 8 13 16 19 17 18 16 13 14 11 12 12 13 7 5 5 5 3 3 3 3 4 2 4 6 5 10 5 6
6 6 6 6 7 6 10 10 7 3 1 3 5 6 10 11 14 12 14 14 15 19 19 16 17 15 12 11 5 5 5 5 4 4 3 4 3 7 5 5 7 10 12
7 5 6 6 6 6 10 8 7 2 3 5 8 10 11 12 8 9 9 9 11 12 12 9 12 16 14 12 7 5 6 4 1 2 4 6 4 6 4 4 8 12 1
5 5 6 6 5 7 8 7 5 3 5 5 6 7 9 11 13 16 12 12 15 15 14 16 19 23 21 14 8 4 4 3 3 4 4 4 5 4 2 2 5 9 8
6 5 7 6 5 1 3 10 2 3 5 4 6 9 12 13 19 19 13 12 15 15 15 15 16 14 10 9 15 10 7 5 3 1 6 5 3 2 4 3 2 4 5
Wind_Direction
156 152 178 155 189 193 171 115 124 160 128 91 69 104 100 47 39 105 94 82 50 130 138 134 136 125 110 99 93 81 63 43 29 24 20 12 1 354 351 352 8 358 357
178 161 135 166 167 149 188 165 166 162 173 122 84 50 35 68 46 94 120 90 88 73 99 114 129 124 118 108 85 57 35 37 25 11 1 355 348 349 348 3 342 339 345
155 150 159 202 169 198 162 95 101 99 116 94 107 166 133 142 100 37 133 138 112 111 113 114 107 99 94 91 76 49 31 20 8 2 1 359 358 352 350 354 349 341 329
152 201 210 177 182 121 122 136 180 189 153 158 150 171 117 120 103 77 46 112 152 132 124 130 127 120 110 94 65 31 21 17 11 8 9 1 353 347 341 338 332 330 325
161 193 217 179 141 143 189 174 212 167 135 163 160 145 99 228 166 186 125 127 100 143 135 150 152 152 152 144 120 70 30 10 13 10 1 353 348 344 340 334 327 323 319
181 189 231 138 147 182 182 176 172 120 144 193 228 160 171 212 208 164 161 185 167 106 133 160 159 171 164 160 156 139 122 19 6 353 348 345 341 337 332 327 323 320 317
170 168 220 138 168 215 186 189 146 140 238 69 10 257 217 191 203 208 172 191 176 155 180 87 94 128 166 183 173 168 166 312 357 346 345 340 333 327 323 320 317 315 312
168 175 211 169 171 221 191 156 157 156 203 165 184 301 279 120 217 211 207 197 185 160 165 185 178 141 141 162 169 190 192 165 120 348 333 331 325 321 317 314 312 310 307
183 178 191 172 175 216 173 164 176 192 181 165 168 155 326 335 216 169 210 194 167 166 203 263 178 180 189 189 173 188 160 154 120 337 331 324 320 317 316 314 312 310 307
201 195 184 192 186 184 166 161 157 197 220 176 165 189 200 140 340 313 196 212 186 177 192 224 240 185 180 183 194 152 154 147 154 324 315 314 317 315 315 314 312 309 306
196 203 225 163 156 125 40 127 115 168 126 99 79 8 14 276 196 208 279 302 225 208 205 194 192 190 179 188 138 146 155 159 164 235 298 316 315 315 315 313 310 309 307
197 174 137 135 103 107 92 67 155 158 125 94 118 185 254 282 230 215 223 236 226 232 205 182 166 170 189 195 167 161 160 170 196 244 296 300 308 310 311 311 310 308 305
161 159 135 158 149 138 162 152 170 125 121 153 49 277 235 258 251 282 294 286 277 300 307 211 186 181 187 202 152 160 174 188 209 232 254 284 297 306 308 307 308 306 305
177 155 131 137 173 148 158 164 143 152 148 153 233 248 265 242 328 297 241 205 302 294 296 255 247 204 201 194 162 163 181 195 184 197 217 257 285 294 297 300 302 303 302
142 145 147 160 186 173 169 159 147 145 148 192 221 240 226 347 330 270 256 220 198 245 255 288 276 284 222 159 168 170 167 203 219 204 229 260 274 276 282 289 298 300 297
151 164 179 194 166 170 164 152 141 136 163 225 232 161 49 328 282 264 251 252 232 204 236 213 251 249 250 223 171 175 191 208 227 241 249 250 254 256 264 277 293 297 295
171 189 190 160 165 174 162 150 147 163 223 229 98 87 20 278 271 264 248 240 247 239 258 267 231 249 252 219 238 197 201 196 214 237 255 247 231 233 247 263 277 283 286
169 181 170 173 174 157 165 158 170 197 181 228 146 82 285 285 268 261 237 231 241 252 225 251 239 251 242 226 204 203 212 214 212 231 258 253 235 228 240 250 260 268 272
171 167 153 155 142 154 170 174 179 188 202 130 108 293 311 283 278 270 268 250 237 249 247 261 263 234 237 229 231 219 201 214 210 229 249 254 239 243 249 249 253 258 262
104 102 120 138 153 164 174 183 181 188 132 145 174 293 279 276 269 270 268 256 255 261 263 256 260 256 233 243 203 195 237 206 224 236 278 271 276 268 255 253 261 265 262
126 129 131 140 157 174 179 165 144 136 162 195 259 271 278 287 302 283 281 272 276 272 258 260 263 260 255 242 212 215 201 200 221 183 218 254 249 269 272 275 272 271 263
141 133 158 166 169 166 146 131 134 161 179 214 246 271 294 296 287 277 265 260 254 256 263 259 261 258 258 246 240 213 204 189 251 204 195 252 242 271 261 259 275 252 238
125 139 148 138 110 117 111 109 106 87 172 240 246 271 274 273 266 267 267 264 261 255 249 259 263 256 258 252 229 231 198 184 204 226 122 260 236 261 246 276 315 305 282
109 115 126 136 143 152 150 158 165 189 240 254 256 263 264 267 279 305 313 304 294 288 281 263 248 255 251 253 218 200 218 211 199 208 153 258 244 247 250 253 268 285 281
135 135 153 163 145 130 159 170 160 239 252 277 312 322 346 341 11 12 348 332 320 308 297 282 279 269 237 219 200 149 201 128 244 221 209 229 252 253 241 258 269 289 242
92 81 69 73 95 120 117 84 62 47 31 5 334 328 325 317 328 335 333 320 304 298 302 309 308 297 236 205 176 190 188 186 169 305 214 223 245 126 315 253 252 302 281